Location: Emporia
(38.4040°N, 96.1810°W)
Time: 21:57:29
(UTC-06:00)

Amateur Radio Satellites - All Passes

Search period start: 22 November 2017 21:27
Search period end: 23 November 2017 21:27
Location: Emporia, 38.4040°N, 96.1810°W

Satellite Date Start Highest point End Downlink Frequencies (MHz)
Time Altitude Azimuth
Oscar 11 22 Nov 21:29:51 21:31:51 13° 269° (W) 21:33:51 .
Max Valier Satellite 22 Nov 21:31:48 21:35:27 81° 257° (WSW) 21:39:07 145.860
NO-84 22 Nov 21:44:38 21:48:48 49° 40° (NE) 21:52:55 435.350 FM
nSIGHT-1 22 Nov 21:46:47 21:49:04 18° 336° (NNW) 21:51:20 .
LO-87 22 Nov 21:47:14 21:48:22 11° 66° (ENE) 21:49:29 145.935 - 145.965
SO-50 22 Nov 21:57:02 22:01:26 59° 304° (WNW) 22:05:53 436.795
FO-29 22 Nov 22:03:53 22:11:04 42° 294° (WNW) 22:17:51 435.910
O/OREOS (USA 219) 22 Nov 22:12:58 22:16:05 18° 57° (ENE) 22:19:10 437.305
UNISAT 6 22 Nov 22:17:41 22:21:58 87° 103° (ESE) 22:26:14 437.425
TIGRISAT 22 Nov 22:21:32 22:25:48 88° 97° (E) 22:30:02 435.000
DELFI C3 22 Nov 22:25:06 22:27:03 13° 268° (W) 22:28:59 145.870
ISS 22 Nov 22:38:08 22:39:26 12° 344° (NNW) 22:40:45 437.550
PRISM 22 Nov 22:43:11 22:47:16 53° 100° (E) 22:51:18 437.425
ESTCUBE 1 22 Nov 22:55:45 23:00:09 63° 74° (ENE) 23:04:36 437.505/2401.250
RS-15 22 Nov 23:04:22 23:12:16 19° 351° (N) 23:20:01 29.354- 29.394
VELOX 1 22 Nov 23:10:19 23:12:36 14° 64° (ENE) 23:14:52 145.980
LO-87 22 Nov 23:17:55 23:21:20 41° 261° (W) 23:24:47 145.935 - 145.965
EO-79 22 Nov 23:19:54 23:22:01 14° 92° (E) 23:24:08 145.935-145.965
NANOSAT C BR1 22 Nov 23:22:09 23:23:56 12° 92° (E) 23:25:43 145.865
NO-84 22 Nov 23:22:38 23:25:53 21° 236° (SW) 23:29:05 435.350 FM
POLYITAN 1 22 Nov 23:34:52 23:38:01 20° 94° (E) 23:41:09 437.675
AIST 2D 22 Nov 23:44:48 23:48:20 79° 283° (WNW) 23:51:52 435.315
SPROUT 22 Nov 23:50:43 23:54:55 59° 75° (ENE) 23:59:09 437.525
O/OREOS (USA 219) 22 Nov 23:51:24 23:55:42 43° 254° (WSW) 23:59:56 437.305
PCSat 22 Nov 23:52:32 23:57:51 63° 114° (ESE) 00:03:13 145.827
QB50P2 22 Nov 23:57:40 00:01:41 42° 99° (E) 00:05:40 145.880/145.840
PRISM 23 Nov 00:20:18 00:22:01 12° 296° (WNW) 00:23:45 437.425
UKube-1 23 Nov 00:27:56 00:29:59 13° 64° (ENE) 00:32:02 .
50 SAT 23 Nov 00:32:34 00:34:57 20° 70° (ENE) 00:37:23 437.505
ESTCUBE 1 23 Nov 00:36:17 00:37:20 11° 270° (W) 00:38:24 437.505/2401.250
DUCHIFAT 1 23 Nov 00:44:01 00:48:11 78° 283° (WNW) 00:52:19 145.980
VELOX 1 23 Nov 00:44:13 00:48:33 53° 260° (W) 00:52:55 145.980
EO-79 23 Nov 00:53:59 00:57:59 44° 287° (WNW) 01:01:57 145.935-145.965
NANOSAT C BR1 23 Nov 00:55:51 00:59:53 47° 286° (WNW) 01:03:53 145.865
nSIGHT-1 23 Nov 01:02:41 01:03:50 11° 16° (NNE) 01:04:58 .
POLYITAN 1 23 Nov 01:10:09 01:13:47 29° 289° (WNW) 01:17:24 437.675
RS-15 23 Nov 01:21:30 01:30:57 25° 27° (NNE) 01:40:01 29.354- 29.394
DX 1 23 Nov 01:23:17 01:27:39 90° 236° (SW) 01:32:04 434.975-435.025
Oscar 19 23 Nov 01:27:47 01:32:35 38° 98° (E) 01:37:22 437.125/150
BUGSAT 1 23 Nov 01:28:48 01:32:50 79° 102° (ESE) 01:36:49 437.445
SPROUT 23 Nov 01:30:14 01:31:09 11° 269° (W) 01:32:04 437.525
BEESAT 3 23 Nov 01:31:46 01:34:43 20° 111° (ESE) 01:37:40 437.485
QB50P2 23 Nov 01:34:40 01:37:04 15° 294° (WNW) 01:39:28 145.880/145.840
PCSat 23 Nov 01:37:48 01:41:40 20° 312° (NW) 01:45:35 145.827
ISS 23 Nov 01:52:21 01:54:43 18° 24° (NNE) 01:57:05 437.550
UKube-1 23 Nov 02:01:18 02:05:30 53° 259° (W) 02:09:46 .
50 SAT 23 Nov 02:04:44 02:06:57 17° 265° (W) 02:09:10 437.505
BEESAT 23 Nov 02:06:33 02:10:16 23° 67° (ENE) 02:13:59 436.000
Gurwin Techsat 1B 23 Nov 02:08:39 02:13:58 67° 101° (ESE) 02:19:14 435.225
MOZHAYETS 4 23 Nov 02:10:36 02:14:35 30° 70° (ENE) 02:18:34
ITUPSAT 1 23 Nov 02:17:13 02:21:17 29° 68° (ENE) 02:25:23 437.325
M-CUBED/EXP-1 PRIME 23 Nov 02:27:24 02:30:52 21° 99° (E) 02:34:20 437.505
CUBESAT XI-V 23 Nov 02:30:31 02:31:49 11° 62° (ENE) 02:33:07 437.345
nSIGHT-1 23 Nov 02:37:37 02:40:42 45° 34° (NE) 02:43:47 .
BEESAT 2 23 Nov 02:47:13 02:50:56 38° 115° (ESE) 02:54:41 435.950
AO-7 23 Nov 03:02:45 03:10:01 32° 97° (E) 03:17:13 .
Oscar 19 23 Nov 03:07:33 03:11:39 25° 294° (WNW) 03:15:47 437.125/150
BEESAT 3 23 Nov 03:08:26 03:12:02 32° 307° (NW) 03:15:39 437.485
AO-85 23 Nov 03:14:33 03:17:44 25° 112° (ESE) 03:21:01 145.980
ITAMSAT 1 23 Nov 03:24:59 03:29:23 27° 96° (E) 03:33:45 435.822/435.867
ISS 23 Nov 03:28:14 03:31:28 65° 222° (SW) 03:34:41 437.550
RS-15 23 Nov 03:34:10 03:46:03 72° 56° (NE) 03:57:14 29.354- 29.394
BEESAT 23 Nov 03:43:28 03:47:48 35° 262° (W) 03:52:11 436.000
YUBILEINY 23 Nov 03:48:01 03:51:11 12° 75° (ENE) 03:54:22 435.215
MOZHAYETS 4 23 Nov 03:48:04 03:51:43 23° 265° (W) 03:55:23
KKS-1 23 Nov 03:48:33 03:51:31 18° 65° (ENE) 03:54:29 437.445
Gurwin Techsat 1B 23 Nov 03:50:18 03:53:18 15° 298° (WNW) 03:56:18 435.225
ITUPSAT 1 23 Nov 03:54:57 03:59:02 28° 264° (W) 04:03:07 437.325
M-CUBED/EXP-1 PRIME 23 Nov 04:01:00 04:05:16 39° 293° (WNW) 04:09:34 437.505
CUBESAT XI-V 23 Nov 04:03:57 04:08:32 72° 259° (WSW) 04:13:09 437.345
STARS 23 Nov 04:08:39 04:09:52 11° 62° (ENE) 04:11:04 437.465
nSIGHT-1 23 Nov 04:14:39 04:16:40 16° 230° (SW) 04:18:39 .
BEESAT 2 23 Nov 04:25:50 04:28:46 19° 312° (NW) 04:31:45 435.950
DOVE 4 23 Nov 04:49:53 04:54:31 34° 95° (E) 04:58:55 437.250
SO-50 23 Nov 04:51:08 04:52:47 12° 40° (NE) 04:54:26 436.795
AO-85 23 Nov 04:54:47 04:58:02 25° 310° (NW) 05:01:24 145.980
AO-7 23 Nov 04:54:57 05:03:00 55° 295° (WNW) 05:11:03 .
ITAMSAT 1 23 Nov 05:04:11 05:08:50 34° 292° (WNW) 05:13:27 435.822/435.867
KKS-1 23 Nov 05:23:28 05:27:43 42° 261° (W) 05:31:59 437.445
XW-2C 23 Nov 05:25:57 05:27:20 12° 92° (E) 05:28:43 145.795 - 145.815
LilacSat-2 23 Nov 05:29:57 05:32:09 15° 93° (E) 05:34:20 437.200
XW-2F 23 Nov 05:34:02 05:36:01 14° 93° (E) 05:38:01 145.980 - 146.000
YUBILEINY 23 Nov 05:37:38 05:46:20 76° 94° (E) 05:55:08 435.215
STARS 23 Nov 05:41:11 05:45:35 69° 258° (WSW) 05:50:01 437.465
RS-15 23 Nov 05:47:56 05:57:20 30° 257° (WSW) 06:06:25 29.354- 29.394
STRAND 1 23 Nov 05:52:22 05:55:42 18° 64° (ENE) 05:59:02 437.568
KAITUO 1B 23 Nov 05:57:18 06:00:12 20° 95° (E) 06:03:04 145.475/437.950
XW-2D 23 Nov 06:17:16 06:21:03 56° 101° (E) 06:24:47 145.860 - 145.880
CUTE 1.7 + AOD 2 23 Nov 06:18:03 06:19:43 12° 91° (E) 06:21:23 437.475
DOVE 4 23 Nov 06:27:47 06:31:59 26° 293° (WNW) 06:36:00 437.250
SO-50 23 Nov 06:29:18 06:33:59 79° 59° (ENE) 06:38:42 436.795
HO-68 23 Nov 06:30:30 06:36:18 26° 95° (E) 06:42:03 435.675
FO-29 23 Nov 06:31:25 06:35:20 16° 55° (NE) 06:39:25 435.910
XW-2B 23 Nov 06:32:08 06:35:58 85° 101° (E) 06:39:48 145.730 - 145.750
NUDT-PHONESAT 23 Nov 06:37:21 06:41:03 66° 101° (E) 06:44:44 437.300
SEEDS 23 Nov 06:43:34 06:45:53 14° 92° (E) 06:48:11 437.485
CUTE-I 23 Nov 06:51:21 06:56:45 87° 104° (ESE) 07:02:05 437.470
AO-7 23 Nov 06:51:40 06:53:54 11° 315° (NW) 06:56:09 .
XW-2C 23 Nov 06:58:04 07:01:41 42° 286° (WNW) 07:05:18 145.795 - 145.815
LilacSat-2 23 Nov 07:03:00 07:06:30 34° 287° (WNW) 07:10:00 437.200
XW-2F 23 Nov 07:06:45 07:10:14 35° 287° (WNW) 07:13:43 145.980 - 146.000
XW-2A 23 Nov 07:25:20 07:27:35 17° 95° (E) 07:29:50 145.665 - 145.685
STRAND 1 23 Nov 07:29:22 07:34:24 55° 259° (W) 07:39:28 437.568
KAITUO 1B 23 Nov 07:31:02 07:34:05 23° 290° (WNW) 07:37:07 145.475/437.950
CUBEBUG 2 23 Nov 07:35:23 07:39:28 53° 100° (E) 07:43:30 437.445
YUBILEINY 23 Nov 07:37:38 07:44:02 22° 294° (WNW) 07:50:31 435.215
CUTE 1.7 + AOD 2 23 Nov 07:51:39 07:55:49 52° 286° (WNW) 07:59:58 437.475
FO-29 23 Nov 08:12:25 08:19:03 83° 75° (ENE) 08:26:33 435.910
ZACube-1 23 Nov 08:12:30 08:16:25 39° 99° (E) 08:20:21 437.345
SO-50 23 Nov 08:13:00 08:13:47 10° 253° (WSW) 08:14:34 436.795
AAUSAT CUBESAT 2 23 Nov 08:17:13 08:21:25 76° 101° (E) 08:25:35 437.432
HO-68 23 Nov 08:17:20 08:24:20 56° 291° (WNW) 08:31:16 435.675
SEEDS 23 Nov 08:17:43 08:21:45 43° 287° (WNW) 08:25:46 437.485
UWE-3 23 Nov 08:27:20 08:31:27 66° 285° (WNW) 08:35:34 435.000/436.395/437.385
CUTE-I 23 Nov 08:34:03 08:35:59 12° 300° (WNW) 08:37:56 437.470
PCSat 23 Nov 08:42:00 08:47:01 37° 55° (NE) 08:52:00 145.827
FALCONSAT 3 23 Nov 08:56:53 09:00:01 27° 160° (SSE) 09:03:10 435.103
XW-2A 23 Nov 08:57:33 09:00:13 22° 289° (WNW) 09:02:53 145.665 - 145.685
AO-73 23 Nov 09:01:57 09:06:02 59° 285° (WNW) 09:10:09 145.935
CUBEBUG 2 23 Nov 09:14:06 09:15:35 12° 295° (WNW) 09:17:03 437.445
UNISAT 6 23 Nov 09:14:22 09:18:53 62° 75° (ENE) 09:23:18 437.425
Oscar 11 23 Nov 09:15:39 09:19:57 64° 284° (WNW) 09:24:13 .
TIGRISAT 23 Nov 09:18:04 09:22:34 62° 75° (ENE) 09:26:59 435.000
PRISM 23 Nov 09:30:49 09:34:25 30° 70° (ENE) 09:38:04 437.425
ZACube-1 23 Nov 09:49:52 09:52:21 16° 293° (WNW) 09:54:52 437.345
DELFI C3 23 Nov 10:00:46 10:04:47 84° 98° (E) 10:08:46 145.870
FO-29 23 Nov 10:01:09 10:05:02 16° 274° (W) 10:09:12 435.910
AIST 2D 23 Nov 10:17:36 10:20:29 25° 72° (ENE) 10:23:24 435.315
PCSat 23 Nov 10:25:38 10:30:15 29° 252° (WSW) 10:34:50 145.827
POLYITAN 1 23 Nov 10:26:55 10:29:04 14° 65° (ENE) 10:31:12 437.675
EO-88 23 Nov 10:29:08 10:32:48 88° 280° (W) 10:36:28 145.990 - 145.960
FALCONSAT 3 23 Nov 10:35:12 10:38:48 52° 175° (S) 10:42:23 435.103
Max Valier Satellite 23 Nov 10:36:36 10:40:07 45° 286° (WNW) 10:43:38 145.860
LO-87 23 Nov 10:46:56 10:49:02 15° 93° (E) 10:51:07 145.935 - 145.965
QB50P2 23 Nov 10:48:48 10:52:22 27° 70° (ENE) 10:55:55 145.880/145.840
ESTCUBE 1 23 Nov 10:50:56 10:53:33 15° 92° (E) 10:56:08 437.505/2401.250
UNISAT 6 23 Nov 10:54:35 10:55:55 11° 269° (W) 10:57:15 437.425
TIGRISAT 23 Nov 10:58:15 10:59:34 11° 269° (W) 11:00:54 435.000
BEESAT 2 23 Nov 11:06:38 11:09:17 17° 47° (NE) 11:11:54 435.950
PRISM 23 Nov 11:06:40 11:09:41 20° 265° (W) 11:12:44 437.425
BEESAT 3 23 Nov 11:25:47 11:29:44 87° 56° (NE) 11:33:37 437.485
DUCHIFAT 1 23 Nov 11:33:41 11:37:50 60° 75° (ENE) 11:41:59 145.980
SPROUT 23 Nov 11:40:17 11:41:18 11° 91° (E) 11:42:19 437.525
EO-79 23 Nov 11:44:05 11:48:19 76° 258° (WSW) 11:52:34 145.935-145.965
NANOSAT C BR1 23 Nov 11:45:38 11:49:51 83° 254° (WSW) 11:54:06 145.865
AO-85 23 Nov 11:45:53 11:49:28 21° 48° (NE) 11:53:14 145.980
AIST 2D 23 Nov 11:51:34 11:53:39 15° 267° (W) 11:55:45 435.315
Gurwin Techsat 1B 23 Nov 11:52:39 11:54:20 11° 60° (ENE) 11:56:02 435.225
POLYITAN 1 23 Nov 12:00:17 12:04:24 48° 260° (W) 12:08:30 437.675
FALCONSAT 3 23 Nov 12:14:09 12:17:41 43° 191° (S) 12:21:12 435.103
BUGSAT 1 23 Nov 12:16:30 12:20:28 43° 73° (ENE) 12:24:25 437.445
LO-87 23 Nov 12:19:25 12:22:27 27° 288° (WNW) 12:25:28 145.935 - 145.965
O/OREOS (USA 219) 23 Nov 12:23:21 12:27:07 25° 102° (ESE) 12:30:54 437.305
QB50P2 23 Nov 12:24:40 12:28:04 23° 265° (W) 12:31:29 145.880/145.840
ESTCUBE 1 23 Nov 12:26:12 12:30:33 47° 287° (WNW) 12:34:54 437.505/2401.250
VELOX 1 23 Nov 12:35:44 12:39:41 30° 97° (E) 12:43:35 145.980
Oscar 19 23 Nov 12:43:04 12:47:57 47° 71° (ENE) 12:52:52 437.125/150
BEESAT 2 23 Nov 12:43:23 12:47:14 46° 244° (WSW) 12:51:01 435.950
M-CUBED/EXP-1 PRIME 23 Nov 13:12:26 13:14:43 16° 60° (ENE) 13:17:06 437.505
SPROUT 23 Nov 13:13:21 13:17:31 56° 285° (WNW) 13:21:39 437.525
DX 1 23 Nov 13:13:58 13:16:51 17° 94° (E) 13:19:43 434.975-435.025
50 SAT 23 Nov 13:22:41 13:25:04 19° 96° (E) 13:27:26 437.505
AO-85 23 Nov 13:25:28 13:30:07 52° 243° (WSW) 13:35:04 145.980
Gurwin Techsat 1B 23 Nov 13:28:09 13:33:28 89° 254° (WSW) 13:38:50 435.225
UKube-1 23 Nov 13:49:56 13:53:35 26° 96° (E) 13:57:13 .
BUGSAT 1 23 Nov 13:53:45 13:55:59 14° 267° (W) 13:58:13 437.445
FALCONSAT 3 23 Nov 13:53:48 13:56:20 17° 205° (SSW) 13:58:50 435.103
AO-7 23 Nov 14:00:08 14:07:38 40° 62° (ENE) 14:15:09 .
O/OREOS (USA 219) 23 Nov 14:02:23 14:06:23 29° 298° (WNW) 14:10:25 437.305
VELOX 1 23 Nov 14:12:27 14:15:56 23° 292° (WNW) 14:19:23 145.980
Oscar 19 23 Nov 14:23:59 14:27:29 18° 267° (W) 14:31:00 437.125/150
NO-84 23 Nov 14:34:59 14:38:30 78° 315° (NW) 14:42:23 435.350 FM
JUGNU 23 Nov 14:38:26 14:39:58 11° 174° (S) 14:41:32 437.505
ITAMSAT 1 23 Nov 14:41:17 14:46:02 37° 69° (ENE) 14:50:49 435.822/435.867
M-CUBED/EXP-1 PRIME 23 Nov 14:45:33 14:48:47 33° 258° (WSW) 14:52:16 437.505
DX 1 23 Nov 14:49:05 14:53:09 38° 289° (WNW) 14:57:11 434.975-435.025
50 SAT 23 Nov 14:54:49 14:57:00 17° 291° (WNW) 14:59:09 437.505
UKube-1 23 Nov 15:25:58 15:29:29 25° 292° (WNW) 15:32:59 .
MOZHAYETS 4 23 Nov 15:43:11 15:47:47 88° 104° (ESE) 15:52:22
BEESAT 23 Nov 15:44:22 15:49:06 64° 102° (ESE) 15:53:48 436.000
YUBILEINY 23 Nov 15:50:09 15:58:04 35° 72° (ENE) 16:05:53 435.215
AO-7 23 Nov 15:52:25 16:00:14 45° 259° (W) 16:08:06 .
DOVE 4 23 Nov 15:53:05 15:57:29 30° 68° (ENE) 16:02:00 437.250
ITUPSAT 1 23 Nov 15:55:52 16:00:39 83° 101° (E) 16:05:24 437.325
CUBESAT XI-V 23 Nov 16:02:04 16:06:14 31° 96° (E) 16:10:23 437.345
NO-84 23 Nov 16:14:13 16:16:28 15° 336° (NNW) 16:18:49 435.350 FM
ITAMSAT 1 23 Nov 16:21:17 16:25:32 25° 265° (W) 16:29:49 435.822/435.867
JUGNU 23 Nov 16:26:21 16:28:05 11° 185° (S) 16:29:46 437.505
CUTE-I 23 Nov 16:34:27 16:37:31 16° 62° (ENE) 16:40:35 437.470
XW-2D 23 Nov 16:57:26 17:00:17 21° 70° (ENE) 17:03:09 145.860 - 145.880
HO-68 23 Nov 16:59:20 17:03:47 18° 56° (ENE) 17:08:14 435.675
XW-2B 23 Nov 17:11:53 17:15:09 30° 72° (ENE) 17:18:27 145.730 - 145.750
NUDT-PHONESAT 23 Nov 17:15:11 17:18:03 22° 70° (ENE) 17:20:55 437.300
KKS-1 23 Nov 17:15:38 17:19:49 39° 99° (E) 17:23:58 437.445
BEESAT 23 Nov 17:24:03 17:26:17 13° 298° (WNW) 17:28:32 436.000
DOVE 4 23 Nov 17:30:34 17:35:00 31° 265° (W) 17:39:38 437.250
STARS 23 Nov 17:32:30 17:35:59 23° 95° (E) 17:39:26 437.465
ITUPSAT 1 23 Nov 17:36:58 17:37:45 10° 299° (WNW) 17:38:32 437.325
XW-2C 23 Nov 17:37:10 17:40:51 68° 76° (ENE) 17:44:35 145.795 - 145.815
CUBESAT XI-V 23 Nov 17:39:38 17:43:26 25° 292° (WNW) 17:47:14 437.345
LilacSat-2 23 Nov 17:42:36 17:46:20 88° 80° (E) 17:50:08 437.200
XW-2F 23 Nov 17:45:13 17:48:55 81° 77° (ENE) 17:52:40 145.980 - 146.000
YUBILEINY 23 Nov 17:46:39 17:55:02 49° 271° (W) 18:03:22 435.215
RS-15 23 Nov 17:53:53 18:05:36 55° 111° (ESE) 18:17:20 29.354- 29.394
KAITUO 1B 23 Nov 18:08:19 18:11:57 65° 260° (W) 18:15:38 145.475/437.950
CUTE-I 23 Nov 18:11:37 18:16:56 68° 258° (WSW) 18:22:19 437.470
SRMSAT 23 Nov 18:15:32 18:17:41 12° 178° (S) 18:19:49 437.500
XW-2D 23 Nov 18:31:22 18:34:20 22° 265° (W) 18:37:19 145.860 - 145.880
CUBEBUG 2 23 Nov 18:31:29 18:35:43 38° 72° (ENE) 18:39:49 437.445
CUTE 1.7 + AOD 2 23 Nov 18:42:09 18:46:20 87° 83° (E) 18:50:35 437.475
HO-68 23 Nov 18:43:21 18:50:34 87° 254° (WSW) 18:57:49 435.675
XW-2B 23 Nov 18:47:06 18:49:22 15° 267° (W) 18:51:39 145.730 - 145.750
NUDT-PHONESAT 23 Nov 18:49:04 18:51:48 20° 265° (W) 18:54:32 437.300
KKS-1 23 Nov 18:53:00 18:56:03 18° 294° (WNW) 18:59:05 437.445
AAUSAT CUBESAT 2 23 Nov 19:05:30 19:09:19 38° 73° (ENE) 19:13:11 437.432
ZACube-1 23 Nov 19:06:54 19:10:29 26° 70° (ENE) 19:14:00 437.345
SEEDS 23 Nov 19:07:05 19:11:15 81° 258° (WSW) 19:15:27 437.485
STARS 23 Nov 19:08:30 19:12:17 29° 291° (WNW) 19:16:02 437.465
nSIGHT-1 23 Nov 19:13:55 19:16:44 28° 134° (SE) 19:19:34 .
UWE-3 23 Nov 19:22:06 19:26:32 79° 78° (ENE) 19:30:52 435.000/436.395/437.385
XW-2A 23 Nov 19:26:01 19:29:19 84° 78° (ENE) 19:32:39 145.665 - 145.685
FO-29 23 Nov 19:26:15 19:30:25 15° 86° (E) 19:34:25 435.910
NO-84 23 Nov 19:33:03 19:34:28 11° 19° (NNE) 19:35:53 435.350 FM
STRAND 1 23 Nov 19:41:15 19:46:17 57° 101° (E) 19:51:17 437.568
AO-73 23 Nov 19:55:18 19:59:36 84° 78° (ENE) 20:03:49 145.935
SRMSAT 23 Nov 20:05:13 20:05:55 10° 188° (S) 20:06:39 437.500
RS-15 23 Nov 20:06:32 20:18:18 49° 313° (NW) 20:30:03 29.354- 29.394
ISS 23 Nov 20:06:44 20:10:00 88° 147° (SSE) 20:13:18 437.550
Oscar 11 23 Nov 20:08:24 20:12:40 78° 76° (ENE) 20:16:59 .
CUBEBUG 2 23 Nov 20:09:15 20:12:23 18° 266° (W) 20:15:30 437.445
HO-68 23 Nov 20:35:49 20:39:08 14° 271° (W) 20:42:30 435.675
SO-50 23 Nov 20:42:23 20:46:24 34° 114° (ESE) 20:50:27 436.795
AAUSAT CUBESAT 2 23 Nov 20:42:30 20:44:54 15° 268° (W) 20:47:20 437.432
ZACube-1 23 Nov 20:43:11 20:46:41 24° 265° (W) 20:50:09 437.345
DELFI C3 23 Nov 20:44:12 20:47:50 36° 72° (ENE) 20:51:30 145.870
nSIGHT-1 23 Nov 20:50:05 20:52:57 28° 330° (NNW) 20:55:47 .
EO-88 23 Nov 21:05:12 21:08:19 28° 72° (ENE) 21:11:29 145.990 - 145.960
FO-29 23 Nov 21:08:35 21:16:28 88° 104° (ESE) 21:23:42 435.910
NO-84 23 Nov 21:08:49 21:12:48 38° 38° (NE) 21:16:48 435.350 FM
UNISAT 6 23 Nov 21:09:08 21:11:14 13° 92° (E) 21:13:20 437.425
TIGRISAT 23 Nov 21:12:41 21:14:45 13° 92° (E) 21:16:48 435.000
Max Valier Satellite 23 Nov 21:13:16 21:16:50 55° 75° (ENE) 21:20:25 145.860
